Regional Weather Roundup
Issued by NWS Jackson, KY

Home | Current Version | Previous Version | Graphics & Text | Print | Product List | Glossary On
Versions: 1 2 3 4 5 6 7 8 9 10 11 12 13 14 15 16 17 18 19 20 21 22 23 24 25 26 27 28 29 30 31 32 33 34 35 36 37 38 39 40 41 42 43 44 45 46 47 48 49 50
000
ASUS43 KJKL 221310
RWRJKL

EAST KENTUCKY HOURLY WEATHER ROUNDUP
NATIONAL WEATHER SERVICE JACKSON KY
900 AM EDT FRI AUG 22 2014

NOTE: "FAIR" INDICATES FEW OR NO CLOUDS BELOW 12,000 FEET WITH
NO SIGNIFICANT WEATHER AND/OR OBSTRUCTIONS TO VISIBILITY.

* THESE REPORTS ARE NOT UNDER NWS QUALITY CONTROL AND MAY NOT
  REPORT WEATHER SUCH AS PRECIPITATION AND FOG.

KYZ079-080-083-085-087-088-110-112-115-119-120-221400
...EASTERN KENTUCKY...

CITY           SKY/WX    TMP DP  RH WIND       PRES   REMARKS
JACKSON        PTSUNNY   74  70  87 CALM      30.10S
LONDON         PTSUNNY   75  70  84 CALM      30.12R
SOMERSET*      PTSUNNY   77  73  88 CALM      30.11R
MONTICELLO*    SUNNY     79  74  84 SW5       30.11S
WILLIAMSBURG*  SUNNY     75  73  94 CALM      30.12R
MIDDLESBORO*   CLOUDY    70  70  99 CALM      30.13S
HARLAN APT*    CLOUDY    68  68 100 MISG      30.15R
HAZARD APT*    CLOUDY    75  73  94 SW6       30.11R
BLACK MTN*       N/A     68  68 100 SE1         N/A
PIKEVILLE APT* PTSUNNY   73  70  88 CALM      30.10S
BIG SANDY*     CLOUDY    73  71  93 SW5       30.08S
MOREHEAD APT*  CLOUDY    75  72  88 SW6       30.07F
$$

KYZ035-036-041-042-044-050-067-078-099-221400
...CENTRAL KENTUCKY...

CITY           SKY/WX    TMP DP  RH WIND       PRES   REMARKS
MT STERLING*   PTSUNNY   75  72  88 SW7       30.07S
FLEMING/MASON* SUNNY     73  72  94 SW6       30.05S
DANVILLE*      MOSUNNY   75  72  88 SW6       30.08R
RICHMOND*      MOSUNNY   77  72  83 S6        30.08R
LEXINGTON      CLOUDY    78  72  81 SW9       30.06R
FRANKFORT      PTSUNNY   76  72  87 SW7       30.03R
$$

KYZ091>093-OHZ055-061-077-WVZ005-015-034-035-042-221400
...SOUTHERN OHIO/WEST VIRGINIA...

CITY           SKY/WX    TMP DP  RH WIND       PRES   REMARKS
COVINGTON      CLOUDY    75  72  90 CALM      30.02R
COLUMBUS       CLOUDY    72  68  87 CALM      30.03R
DAYTON         RAIN      71  70  96 CALM      30.04R FOG
WILMINGTON     LGT RAIN  70  69  97 SW6       30.02S FOG
HUNTINGTON     CLOUDY    72  71  97 SW6       30.03S
CHARLESTON     CLOUDY    72  71  97 CALM      30.05S
PINEVILLE*     CLOUDY    69  69 100 MISG      30.16S
BECKLEY        HVY RAIN  67  66  97 CALM      30.14S VSB 1/4
BLUEFIELD      CLOUDY    70  66  87 W7        30.17F
$$

VAZ002-007-008-TNZ017-027-036-066-071-221400
...SOUTHWEST VIRGINIA/EAST TENNESSEE...

CITY           SKY/WX    TMP DP  RH WIND       PRES   REMARKS
WISE*          CLOUDY    73  72  94 W7        30.19F
JONESVILLE*      N/A     68  68 100 CALM      30.16S
ABINGDON*      PTSUNNY   72  72 100 W3        30.17R FOG
BRISTOL        PTSUNNY   72  69  90 CALM      30.14S
KNOXVILLE      PTSUNNY   76  71  85 S5        30.12R
OAK RIDGE      CLOUDY    76  72  87 W5        30.14R
CROSSVILLE     PTSUNNY   76  70  82 W6        30.19R
NASHVILLE      CLOUDY    81  74  79 VRB3      30.11R
$$

...KEY TO REMARKS...
VSB - VISIBILITY IN MILES
WCI - WIND CHILL INDEX
HX  - HEAT INDEX

$$


USA.gov is the U.S. government's official web portal to all federal, state and local government web resources and services.